Location: Brandstrup
(56.2705°N, 10.2804°E)
Time: 12:42:19
(UTC+00:00)

Daily predictions for brighter satellites

Satellite Brightness Start Highest point End
(mag) Time Altitude Azimuth Time Altitude Azimuth Time Altitude Azimuth
IRIDIUM 103 4.4 19:47:17 10° S 19:52:30 84° E 19:57:46 10° N
CZ-2C R/B 3.7 19:49:13 10° NNE 19:53:55 78° ESE 19:58:29 10° SSW
Cosmos 1821 Rocket 4.0 19:48:43 10° S 19:54:48 67° E 20:01:00 10° NNE
Cosmos 1862 Rocket 4.0 19:51:30 10° N 19:55:54 51° ENE 20:00:15 10° SSE
Intercosmos 25 3.9 19:50:39 10° NNW 19:56:00 71° W 19:59:35 10° S
SL-16 R/B 3.1 19:50:49 10° NNW 19:56:11 41° NE 20:01:32 10° ESE
COSMOS 2406 3.4 19:51:06 10° SSW 19:56:42 55° ESE 20:02:18 10° NE
Cosmos 1743 Rocket 4.3 19:53:24 10° SSW 19:57:48 59° WNW 20:02:16 10° N
Lacrosse 5 1.9 19:55:15 10° WNW 20:00:21 86° SSW 20:05:27 10° ESE
Cosmos 2369 4.1 19:55:33 10° NW 20:01:15 66° WSW 20:06:56 10° SSE
ERS-1 Rocket 3.4 19:56:53 10° SE 20:01:44 51° ENE 20:06:36 10° N
Cosmos 1862 3.5 20:01:54 10° SSW 20:05:57 80° WNW 20:10:03 10° N
Cosmos 2219 Rocket 4.2 20:02:12 10° NNW 20:06:34 22° NNE 20:10:55 10° ENE
Sich 1 3.1 20:02:27 10° S 20:06:53 73° E 20:11:20 10° NNE
BREEZE-M DEB (TANK) 3.5 20:06:27 10° SW 20:08:30 18° S 20:09:55 11° SE
NOSS 2 (A) 4.2 20:07:02 10° NW 20:09:57 88° SW 20:12:18 11° SE
Cosmos 2123 Rocket 4.0 20:04:12 10° N 20:10:26 82° ENE 20:16:42 10° SSE
Cosmos 2278 3.9 20:04:50 10° NW 20:10:35 77° WSW 20:16:17 10° SSE
Cosmos 2082 Rocket 2.8 20:06:52 10° S 20:11:57 35° ESE 20:17:02 10° NE
Spot 2 Rocket 3.6 20:12:38 10° SSE 20:17:46 81° WSW 20:22:54 10° NNW
Meteor 1-4 Rocket 2.6 20:14:54 10° NNW 20:18:25 75° WSW 20:21:52 10° S
Cosmos 2322 Rocket 2.9 20:13:13 10° NNW 20:18:42 45° NE 20:24:10 10° ESE
CZ-2C R/B 3.6 20:16:30 10° N 20:21:30 50° WNW 20:26:29 10° SW
Cosmos 1184 Rocket 3.5 20:21:18 10° SSE 20:24:21 36° E 20:27:26 10° NNE
CARTOSAT-1 3.6 20:20:12 10° SSE 20:24:29 69° ENE 20:28:49 10° NNW
Cosmos 1190 Rocket 4.2 20:19:32 10° S 20:24:40 54° ESE 20:29:51 10° NE
USA 234 3.7 20:18:52 10° SE 20:25:11 50° SW 20:31:32 10° WNW
Terra 2.2 20:21:08 11° SE 20:25:39 51° ENE 20:30:17 10° N
Cosmos 407 Rocket 3.5 20:22:19 10° SSW 20:27:35 66° ESE 20:32:50 10° NNE
Okean 1 3.7 20:23:58 10° N 20:27:55 49° ENE 20:31:27 13° SSE
Cosmos 1933 Rocket 4.5 20:24:16 10° SSE 20:28:08 32° E 20:32:05 10° NNE
Cosmos 1605 Rocket 4.2 20:22:24 10° SSE 20:28:16 51° E 20:34:08 10° NNE
Cosmos 1666 Rocket 3.5 20:24:09 10° S 20:28:28 79° E 20:32:50 10° NNE
Meteor 1-27 Rocket 4.5 20:23:06 10° NNW 20:28:51 56° W 20:34:38 10° S
Cosmos 1238 Rocket 3.1 20:28:02 13° SSE 20:30:15 29° E 20:32:52 10° NNE
Cosmos 1437 Rocket 3.4 20:28:47 10° N 20:32:27 40° ENE 20:35:27 14° SE
Cosmos 2360 Rocket 3.3 20:27:31 10° NNW 20:32:49 38° NE 20:38:05 10° ESE
Meteor 1-19 Rocket 4.3 20:31:58 10° N 20:37:23 63° ENE 20:42:13 13° SSE
ERBS 2.1 20:35:24 10° WSW 20:38:43 77° SSE 20:42:02 10° ENE
CZ-4B DEB 4.4 20:35:36 11° SSE 20:38:46 81° W 20:42:08 10° NNW
SPOT 5 2.6 20:35:54 12° SSE 20:39:58 82° ENE 20:44:23 10° NNW
USA 238 DEB 4.3 20:34:50 10° S 20:40:35 32° ESE 20:46:33 10° ENE
USA 238 4.3 20:34:58 10° S 20:40:43 32° ESE 20:46:39 10° ENE
Cosmos 1980 Rocket 2.7 20:36:07 10° NW 20:41:40 55° WSW 20:47:05 10° SSE
Cosmos 1703 Rocket 3.8 20:39:17 10° N 20:43:37 56° ENE 20:47:06 15° SSE
Cosmos 2242 Rocket 3.6 20:39:10 10° N 20:43:39 72° ENE 20:47:29 14° SSE
Iridium 4 Rocket 4.5 20:41:58 13° SE 20:44:41 23° E 20:48:00 10° NNE
Geosat 4.5 20:40:38 12° ESE 20:45:12 55° NE 20:50:08 10° NNW
SPOT 1/Viking Rocket 4.0 20:40:33 10° S 20:45:43 61° WSW 20:50:56 10° NNW
Cosmos 1763 Rocket 3.6 20:41:19 10° NNW 20:46:41 75° ENE 20:51:08 15° SE
Genesis I 4.3 20:44:12 10° WNW 20:47:44 34° SW 20:50:44 13° S
SL-4 R/B 3.0 20:46:36 10° SSW 20:49:33 21° SSE 20:51:35 14° ESE
BREEZE-M DEB (TANK) 3.4 20:47:00 10° SW 20:50:01 38° SSE 20:57:56 10° E
ATLAS 5 CENTAUR R/B 4.4 20:46:28 10° WNW 20:50:09 17° WSW 20:54:07 10° SSW
Cosmos 405 Rocket 3.1 20:49:21 15° SSE 20:52:09 42° E 20:55:42 10° NNE
Cosmos 2333 Rocket 3.7 20:47:41 10° NNW 20:52:48 31° NNE 20:57:52 10° E
FAST 4.5 20:49:54 10° N 20:53:01 70° ENE 20:54:41 20° SSE
Cosmos 1140 Rocket 3.5 20:47:59 10° SSW 20:53:14 80° ESE 20:58:32 10° NNE
Cosmos 2237 Rocket 4.4 20:52:15 10° NNW 20:56:32 21° NNE 21:00:47 10° ENE
Cosmos 1697 Rocket 4.3 20:52:20 10° NW 20:57:01 28° WSW 21:01:39 10° SSW
USA 32 4.1 20:54:01 10° S 20:59:15 89° W 21:04:32 10° N
Cosmos 1633 Rocket 3.5 20:57:25 10° SSW 21:01:49 64° WNW 21:06:15 10° N
Cosmos 1833 Rocket 2.8 20:56:49 10° SW 21:02:27 83° NW 21:08:08 10° NE
Meteor 1-18 Rocket 4.3 20:59:22 10° NNW 21:05:02 81° WSW 21:09:50 14° S
Okean 1-7 3.0 21:00:57 10° N 21:05:20 77° ENE 21:08:30 18° SSE
Cosmos 1867 3.7 21:03:31 10° SSW 21:08:45 51° SE 21:14:03 10° NE
CENTAUR R/B 3.4 21:04:45 13° S 21:09:12 30° ESE 21:15:10 10° ENE
Okean 3 4.1 21:07:12 10° N 21:11:19 43° ENE 21:13:59 19° SE
Resurs 01 Rocket 4.2 21:09:22 10° SW 21:12:08 16° W 21:14:55 10° NW
Meteor 2-4 Rocket 3.8 21:08:57 10° NNW 21:14:44 75° ENE 21:18:53 19° SSE
FALCON 9 DEB 4.2 21:12:25 10° SSW 21:15:17 24° SSE 21:15:22 24° SSE
Cosmos 1515 3.7 21:11:55 10° NNW 21:15:47 80° W 21:18:23 20° S
deb Kosmos-1763 4.1 21:15:49 10° SSW 21:19:26 79° WNW 21:23:08 10° NNE
Cosmos 44 3.3 21:14:44 10° NW 21:19:33 89° SW 21:23:09 19° SE
SL-27 R/B 3.7 21:19:37 21° ESE 21:20:03 21° ESE 21:22:39 10° NE
ATLAS 5 CENTAUR R/B 1.5 21:17:57 10° WNW 21:20:14 69° SSW 21:23:25 18° SE
SWARM C 4.5 21:17:28 10° N 21:20:50 88° E 21:22:47 23° S
SWARM A 4.2 21:17:34 10° N 21:20:56 84° W 21:22:57 22° S
Cosmos 676 Rocket 4.0 21:16:48 10° SSW 21:22:09 86° ESE 21:27:32 10° NNE
Meteor 1-25 Rocket 4.3 21:18:48 10° SSW 21:24:23 82° WNW 21:30:04 10° NNE
Cosmos 1470 Rocket 3.9 21:20:08 10° SSW 21:24:32 65° WNW 21:28:55 10° N
USA 267 3.2 21:23:21 10° ENE 21:29:55 73° SSE 21:36:28 10° WSW
Spot 4 4.2 21:27:26 20° SE 21:30:32 54° ENE 21:35:16 10° N
Cosmos 921 Rocket 4.4 21:27:59 10° NW 21:31:44 31° WSW 21:34:50 13° SSW
NOSS 3-2 (A) 3.5 21:29:06 10° SSW 21:34:48 56° SE 21:41:25 10° NE
SAR-Lupe-2 4.2 21:34:58 10° N 21:38:31 55° WNW 21:41:55 11° SSW
Cosmos 841 Rocket 3.5 21:33:26 10° NNW 21:38:41 83° WSW 21:42:01 23° SSE
Cosmos 540 Rocket 3.5 21:34:55 10° NNW 21:40:08 84° WSW 21:43:22 23° SSE
SL-16 R/B 2.5 21:35:01 10° NW 21:40:36 60° WSW 21:44:17 22° S
ERS-1 Rocket 4.3 21:36:14 10° SSW 21:40:45 33° W 21:45:18 10° NNW
NOSS 3-2 (C) 3.8 21:35:51 13° SSW 21:40:50 43° SE 21:47:07 10° NE
COSMOS 2406 4.5 21:35:44 10° WSW 21:41:13 44° NW 21:46:43 10° NNE
OPS 6432 4.1 21:38:42 10° SW 21:42:21 76° SE 21:45:22 10° NE
Lacrosse 5 2.5 21:38:19 10° WNW 21:43:03 40° SW 21:45:31 24° SSE
Cosmos 2322 4.2 21:37:36 10° NNW 21:43:12 54° NE 21:47:37 16° ESE
Cosmos 1570 Rocket 4.2 21:44:38 10° NNW 21:49:56 70° WSW 21:53:10 24° SSE
Tsikada Rocket 4.2 21:44:24 10° N 21:50:47 64° ENE 21:54:55 23° SSE
Cosmos 2219 Rocket 3.0 21:46:23 10° NNW 21:51:55 48° NE 21:56:38 14° ESE
Cosmos 2208 Rocket 4.0 21:46:45 10° NNW 21:52:04 77° WSW 21:55:11 25° SSE
Cosmos 1741 Rocket 4.0 21:48:23 18° S 21:52:20 66° ESE 21:57:36 10° NNE
Cosmos 1814 Rocket 4.0 21:47:14 10° NNW 21:52:27 79° WSW 21:55:32 25° SSE
Cosmos 2082 Rocket 2.7 21:50:10 10° SW 21:55:49 62° NW 22:01:28 10° NNE
Cosmos 2237 4.2 21:51:20 10° NW 21:57:05 81° WSW 22:00:34 25° SSE
Cosmos 2084 Rocket 4.4 21:59:01 27° SE 21:59:22 27° SE 22:03:02 10° ENE
Cosmos 2322 Rocket 2.6 21:57:24 10° NW 22:02:55 52° WSW 22:06:13 24° S
Terra 3.3 22:00:02 13° SSW 22:03:38 30° W 22:07:52 10° NNW
EO 1 Del DPAF 4.0 22:00:28 10° NNE 22:03:58 35° E 22:04:57 30° SE
SL-16 R/B 4.4 22:02:21 10° NNW 22:06:50 23° NNE 22:11:20 10° ENE
Cosmos 1437 Rocket 4.5 22:05:22 10° NW 22:08:32 25° W 22:10:50 15° SW
Cosmos 2100 Rocket 4.0 22:05:35 17° SSW 22:10:26 81° WNW 22:16:38 10° N
Cosmos 1242 Rocket 2.6 22:07:15 10° N 22:10:51 68° ENE 22:12:07 37° SE
Meteor 1-11 Rocket 3.9 22:09:09 25° S 22:12:23 62° E 22:18:05 10° NNE
ERBS 2.3 22:11:44 10° W 22:15:03 77° N 22:18:11 11° E
Helios 1A 4.2 22:13:11 20° ESE 22:15:30 34° ENE 22:19:21 10° N
Cosmos 1869 Rocket 3.8 22:13:02 21° SSW 22:15:55 67° WNW 22:20:23 10° N
MTI 4.2 22:14:05 10° N 22:17:08 55° WNW 22:18:29 28° SW
Cosmos 2360 Rocket 2.3 22:11:34 10° NW 22:17:14 67° WSW 22:20:19 27° SSE
COSMOS 2428 3.1 22:12:41 10° NNW 22:18:24 60° NE 22:22:37 18° SE
ATLAS 3B R/B 3.2 22:21:13 25° SSE 22:24:00 36° ESE 22:29:59 10° ENE
CRYOSAT 2 4.3 22:19:10 10° N 22:24:06 86° W 22:26:46 27° S
Iridium 4 Rocket 3.6 22:21:45 21° SSW 22:24:25 52° W 22:28:32 10° N
Cosmos 2173 Rocket 4.2 22:21:11 17° SSW 22:26:02 70° WNW 22:32:10 10° N
Cosmos 1500 3.8 22:25:10 22° SW 22:27:17 49° WNW 22:30:58 10° N
SL-4 R/B 2.9 22:25:07 10° WSW 22:27:13 27° SW 22:27:13 27° SW
ALOS 2 2.5 22:27:44 33° SSE 22:29:41 89° ENE 22:34:07 10° NNW
USA 238 DEB 3.7 22:24:09 10° SW 22:30:53 90° WNW 22:37:59 10° NE
USA 238 3.7 22:24:15 10° SW 22:30:59 90° SSE 22:38:05 10° NE
Cosmos 1725 Rocket 4.0 22:27:20 25° S 22:31:18 82° E 22:37:39 10° NNE
Cosmos 1674 Rocket 3.4 22:27:04 10° NNW 22:31:25 89° WSW 22:33:13 35° S
SL-08 R/B 4.4 22:32:18 25° S 22:36:07 89° E 22:42:16 10° NNE
Cosmos 1536 2.7 22:34:39 37° S 22:36:10 84° E 22:40:11 10° NNE
Cosmos 2333 Rocket 2.2 22:32:01 10° NW 22:37:51 86° NE 22:41:19 25° SE
Cosmos 1666 2.7 22:37:33 36° SSW 22:38:57 76° WNW 22:42:44 10° N
Cosmos 1743 3.5 22:38:17 33° SE 22:39:17 40° E 22:42:58 10° NNE
Cosmos 1271 Rocket 2.7 22:35:47 10° NNW 22:39:33 72° ENE 22:40:47 40° SSE
NOSS 0 Rocket 4.3 22:35:47 10° NW 22:41:59 62° NE 22:47:14 15° SE
Cosmos 2237 Rocket 3.2 22:36:37 10° NNW 22:42:04 44° NE 22:47:28 10° ESE
Cosmos 1356 3.4 22:41:30 44° SSW 22:42:30 80° WNW 22:45:57 10° NNE
MOS 1-B Rocket 4.0 22:36:55 10° NNE 22:42:45 75° WNW 22:46:44 20° SSW
Cosmos 2016 Rocket 4.2 22:39:51 21° SSW 22:44:16 74° WNW 22:50:41 10° N
Cosmos 2061 Rocket 4.1 22:41:22 21° SSW 22:45:39 73° WNW 22:51:53 10° N
Lacrosse 4 Rocket 2.6 22:45:23 26° ESE 22:45:43 26° ESE 22:49:15 10° ENE
Cosmos 1867 4.3 22:47:03 10° WSW 22:52:25 56° NNW 22:57:49 10° NE
Cosmos 1733 Rocket 3.1 22:50:59 33° SSW 22:52:56 81° WNW 22:57:24 10° N
Thor Agena Rocket 3.6 22:48:55 10° NNE 22:54:00 78° WNW 22:57:00 25° SSW
Cosmos 44 Rocket 3.3 22:49:31 10° NW 22:54:29 90° SSW 22:57:31 25° SE
SL-27 R/B 3.4 22:53:08 21° WSW 22:54:57 41° WNW 22:58:08 10° NNE
Cosmos 836 Rocket 4.5 22:50:24 10° NNW 22:55:38 75° WSW 22:58:04 32° SSE
CENTAUR R/B 2.7 22:52:40 10° SW 22:59:01 88° SE 23:06:38 10° NE
Cosmos 968 Rocket 4.0 22:59:01 30° SSE 23:00:50 42° ESE 23:05:39 10° NE
SL-24 DEB 4.4 22:58:30 10° N 23:03:18 68° E 23:05:18 34° SSE
Cosmos 1975 3.7 23:02:22 30° SE 23:03:30 37° E 23:07:14 10° NNE
Cosmos 1378 3.7 23:07:54 10° NNW 23:11:31 45° W 23:12:29 36° SW
Cosmos 1782 Rocket 4.2 23:10:37 31° SE 23:12:05 43° E 23:16:13 10° NNE
USA 267 3.3 23:06:32 10° E 23:13:07 85° N 23:19:41 10° W
Cosmos 1707 3.9 23:10:46 10° N 23:14:26 36° ENE 23:16:13 24° ESE
Cosmos 1842 3.2 23:12:28 10° NNW 23:16:28 86° ENE 23:17:41 43° SSE
Cosmos 2233 Rocket 4.1 23:14:30 26° SSW 23:18:20 76° WNW 23:24:43 10° N
Cosmos 2344 4.2 23:09:54 10° NW 23:18:37 87° NE 23:30:42 10° SE
Cosmos 1464 Rocket 4.4 23:15:36 27° SSE 23:18:56 54° E 23:24:57 10° NNE
Cosmos 1908 Rocket 3.5 23:18:33 38° S 23:20:10 81° E 23:24:34 10° NNE
Helios 1B rocket 3.9 23:17:06 10° NE 23:20:31 25° E 23:21:48 21° ESE
Meteor 1-21 4.3 23:16:21 10° NNW 23:22:14 86° ENE 23:25:21 29° SSE
SL-16 R/B 4.3 23:20:54 10° WNW 23:23:36 14° W 23:26:08 10° WSW
Lacrosse 5 4.0 23:23:09 10° WSW 23:24:41 12° WSW 23:24:41 12° WSW
Cosmos 2227 Rocket 4.3 23:22:42 11° ESE 23:25:13 14° E 23:28:01 10° ENE
NOSS 3-2 (A) 4.1 23:19:38 10° WSW 23:25:43 62° NNW 23:32:52 10° ENE
Cosmos 2322 4.3 23:22:02 10° NW 23:27:19 41° WSW 23:29:31 29° SSW
NOSS 3-2 (C) 3.8 23:25:23 10° WSW 23:31:28 71° NNW 23:38:36 10° NE
Cosmos 1833 4.1 23:28:44 26° SSW 23:32:03 88° SE 23:37:47 10° NE
COSMOS 2487 2.5 23:32:14 44° SW 23:33:09 71° WNW 23:36:37 10° NNE
Nadezhda 4 Rocket 4.1 23:27:54 10° N 23:34:15 75° ENE 23:38:04 25° SSE
Cosmos 2219 Rocket 2.6 23:30:30 10° NW 23:35:57 48° WSW 23:38:19 31° SSW
Cosmos 2084 Rocket 3.5 23:35:30 19° WSW 23:38:32 77° NNW 23:42:54 10° NE
Cosmos 1975 Rocket 3.2 23:36:15 10° NNW 23:40:44 69° W 23:42:25 37° S
Cosmos 2082 Rocket 4.4 23:36:23 10° W 23:41:01 25° NNW 23:45:38 10° NNE
Cosmos 1437 3.3 23:40:59 10° N 23:43:54 46° ENE 23:44:31 39° ESE
Cosmos 2322 Rocket 4.4 23:44:02 10° WNW 23:45:42 11° W 23:47:21 10° WSW
Okean 2 Rocket 3.9 23:45:22 27° SE 23:47:15 41° E 23:51:28 10° NNE
Cosmos 2034 Rocket 4.3 23:43:53 27° SSE 23:47:24 62° E 23:53:38 10° NNE
Landsat 4 3.8 23:44:19 10° NNE 23:48:07 63° ESE 23:49:12 42° SSE
Cosmos 1503 Rocket 4.2 23:45:55 32° S 23:48:23 65° ESE 23:53:44 10° NNE
Cosmos 1092 Rocket 4.3 23:42:12 10° N 23:48:27 64° ENE 23:52:44 21° SSE
Cosmos 1072 Rocket 4.4 23:46:51 29° S 23:50:11 87° E 23:56:20 10° NNE
Helios 1A 3.8 23:49:48 31° SW 23:51:02 38° W 23:55:01 10° NNW
CZ-2D R/B 4.0 23:47:03 10° NE 23:51:11 21° E 23:54:54 12° SE
ERBS 2.3 23:48:03 10° WNW 23:51:02 53° SW 23:51:02 53° SW
SL-16 R/B 3.3 23:46:15 10° SE 23:52:13 51° ENE 23:58:15 10° NNW
SL-16 R/B 3.0 23:46:40 10° NNW 23:52:16 53° NE 23:57:50 10° ESE
Cosmos 1300 Rocket 4.3 23:52:28 28° SE 23:54:12 43° E 23:58:18 10° NNE
Cosmos 1544 3.4 23:54:38 39° SW 23:55:44 57° WNW 23:59:22 10° N
